Location: Kumla
(59.1265°N, 15.1401°E)
Time: 12:12:40
(UTC+01:00)

Vanguard 3 - Pass Details

Date: 10 December 2023
Orbit: 508 x 3239 km, 33.4° (Epoch: 24 February)

Event Time Altitude Azimuth Distance (km) Brightness Sun altitude
Rises 20:09:51 0° 217° (SW) 6,795 12.1 -37.0°
Reaches altitude 10° 20:17:28 10° 199° (SSW) 5,288 11.2 -37.9°
Enters shadow 20:22:31 15° 180° (S) 4,487 10.7 -38.5°
